Flag for Mauritania Weather past 2 weeks in Nouakchott, Mauritania

Now
70 °F

Passing clouds.


Feels Like: 70 °F
Forecast: N/A
Wind: 7 mph from North

Location: Nouakchott Airport

Current Time: Dec 22, 2014 at 9:05:14 PM

Latest Report: Dec 22, 2014 at 8:30 PM


Visibility: 4 mi

Pressure: 29.95 "Hg

Humidity: 53%

Dew point: 52 °F

Location of NouakchottLocation

Historic Weather in Nouakchott — Graph

°F

Nouakchott temperature yesterday

Maximum temperature yesterday: 84 °F (at 4:00 PM)
Minimum temperature yesterday: 57 °F (at 5:00 AM)
Average temperature yesterday: 69 °F

Past Weeks' High & Low Weather Summary

 TemperatureHumidityPressure
High102 °F (Dec 14, 2:30 PM)53% (Dec 22, 8:00 PM)32.96 "Hg (Dec 22, 8:00 PM)
Low54 °F (Dec 18, 6:00 AM)5% (Dec 14, 2:30 PM)29.83 "Hg (Dec 8, 3:30 PM)
Average73 °F20%30.00 "Hg
* Reported Dec 7 8:00 PM — Dec 22 8:00 PM, Nouakchott, Weather by CustomWeather, © 2014

Note: Actual official high and low records may vary slightly from our data, if they occured in-between our weather recording intervals... More about our weather records

Advertising

Nouakchott weather history for previous 24 hours

 ConditionsComfort  
Time TempWeatherWind HumidityBarometerVisibility
8:00 PM
Dec 22
70 °FPassing clouds.7 mph53%29.95 "Hg4 mi
7:30 PM72 °FPassing clouds.7 mph44%29.92 "Hg5 mi
7:00 PM72 °FPassing clouds.5 mph41%29.92 "Hg5 mi
6:30 PM73 °FPassing clouds.6 mph36%29.92 "Hg5 mi
6:00 PM75 °FPassing clouds.8 mph31%29.89 "Hg5 mi
5:30 PM75 °FPassing clouds.8 mph36%29.89 "Hg5 mi
5:00 PM79 °FPassing clouds.9 mph37%29.89 "Hg5 mi
4:30 PM82 °FPassing clouds.8 mph19%29.89 "Hg5 mi
4:00 PM82 °FPassing clouds.8 mph17%29.89 "Hg5 mi
3:30 PM88 °FPassing clouds.2 mph9%29.89 "Hg5 mi
3:00 PM88 °FClear.2 mph9%29.89 "Hg5 mi
2:30 PM88 °FClear.5 mph9%29.89 "Hg5 mi
2:00 PM86 °FClear.7 mph10%29.89 "Hg5 mi
1:30 PM86 °FClear.7 mph11%29.92 "Hg5 mi
1:00 PM84 °FClear.7 mph10%29.92 "Hg5 mi
12:30 PM82 °FClear.8 mph12%29.95 "Hg5 mi
12:00 PM81 °FClear.7 mph13%29.95 "Hg4 mi
11:30 AM79 °FClear.8 mph15%29.95 "Hg4 mi
11:00 AM75 °FClear.8 mph16%29.95 "Hg4 mi
10:30 AM72 °FClear.7 mph17%29.98 "Hg4 mi
10:00 AM68 °FClear.6 mph20%29.98 "Hg4 mi
9:30 AM63 °FClear.6 mph24%29.98 "Hg4 mi
9:00 AM61 °FDuststorm.3 mph25%29.98 "Hg2 mi
8:30 AM57 °FDuststorm.3 mph31%29.95 "Hg2 mi
8:00 AM57 °FDuststorm.3 mph31%29.95 "Hg2 mi
7:30 AM59 °FClear.3 mph27%29.92 "Hg4 mi
7:00 AM59 °FClear.3 mph25%29.92 "Hg4 mi
6:30 AM59 °FClear.3 mph27%29.92 "Hg4 mi
6:00 AM59 °FClear.3 mph25%29.92 "Hg4 mi
5:30 AM61 °FClear.5 mph23%29.92 "Hg4 mi
5:00 AM61 °FClear.2 mph25%29.92 "Hg4 mi
4:30 AM61 °FClear.5 mph25%29.92 "Hg4 mi
3:30 AM61 °FClear.3 mph23%29.95 "Hg4 mi
3:00 AM63 °FClear.3 mph22%29.95 "Hg4 mi
2:30 AM66 °FClear.6 mph19%29.95 "Hg4 mi
2:00 AM64 °FClear.7 mph21%29.95 "Hg4 mi
1:30 AM64 °FClear.6 mph22%29.98 "Hg4 mi
1:00 AM66 °FClear.5 mph19%29.98 "Hg4 mi
12:30 AM64 °FClear.6 mph21%29.98 "Hg4 mi
12:00 AM66 °FClear.5 mph21%29.98 "Hg4 mi
11:30 PM
Dec 21
64 °FClear.5 mph21%29.98 "Hg4 mi
11:00 PM66 °FClear.6 mph21%29.98 "Hg4 mi
10:30 PM66 °FClear.6 mph19%29.98 "Hg4 mi
9:30 PM68 °FClear.6 mph18%29.98 "Hg4 mi
9:00 PM70 °FClear.2 mph18%29.98 "Hg4 mi
Weather by CustomWeather, © 2014

See weather overviewHow to use our weather pages